Orbital Elements at Epoch 2459000.5 (2020-May-31.0) TDB
Reference: JPL 21 (heliocentric ecliptic J2000)
Element | Value | Uncertainty (1-sigma) | Units |
e | .1510554240659351 | 2.6998e-08 | |
a | 2.364754788585469 | 1.036e-08 | au |
q | 2.00754575118374 | 6.4047e-08 | au |
i | 3.550083797049506 | 3.3619e-06 | deg |
node | 88.75213955057519 | 6.5394e-05 | deg |
peri | 334.4369123936181 | 6.6989e-05 | deg |
M | 119.1747615795908 | 1.5315e-05 | deg |
tp | 2458560.797041009407 (2019-Mar-18.29704101) | 5.5355e-05 | TDB |
period | 1328.243187890899 3.64 | 8.7286e-06 2.39e-08 | d yr |
n | .2710347045495785 | 1.7811e-09 | deg/d |
Q | 2.721963825987198 | 1.1925e-08 | au |
|
| | Orbit Determination Parameters
Additional Information
|